User: anonymous   Login
Location: Unspecified
(0.0000°N, 0.0000°E)
Time: 14:25:41
(UTC+00:00)
Language:

CHIBIS-M - Orbit

View from above orbital plane
View from above orbital plane
View from above satellite
View from above satellite

Ground track
Ground track

The orbit data is extracted from the following two-line orbital elements,

1 38051U 11062C   14288.65876392  .70201582  12497-4  27925-2 0   413
2 38051 051.5964 324.1908 0006422 269.6897 186.8903 16.43533377153081
Epoch (UTC): 15 October 2014 15:48:37
Eccentricity: 0.0006422
inclination: 51.5964°
perigee height: 152 km
apogee height: 160 km
right ascension of ascending node: 324.1908°
argument of perigee: 269.6897°
revolutions per day: 16.43533377
mean anomaly at epoch: 186.8903°
orbit number at epoch: 15308

The dashed part of the orbit path shows where the satellite is in the earth's shadow,  

DLR